sat.trackr.live / text

‹ back to catalog

KUIPER-00132

NORAD 65763 · 2025-217B

PAYLOAD ACTIVE UNKNOWN

§ Identity

Operator
Country
US
Launch date
2025-09-25
Launch site
AFETR
Launch vehicle
Mass (kg)
RCS (m²)

External: N2YO · Heavens-Above · Gunter

§ Orbital elements

Epoch: 2026-05-24T22:45:11.454336Z

Period
93.39 min
Inclination
51.8566°
Eccentricity
0.0005789
Mean motion
15.41910214 rev/d
Perigee alt
436.5 km
Apogee alt
444.4 km
Semi-major
6,818.6 km
B*
6.4908e-4
RAAN
352.5884°
Arg perigee
229.2064°
Mean anomaly
130.8423°
Rev number
3,718

§ Raw data

KUIPER-001321 65763U 25217B   26144.94804924  .00027741  00000+0  64908-3 0  99912 65763  51.8566 352.5884 0005789 229.2064 130.8423 15.41910214 37187

JSON: /api/v1/satellites/65763 · /tle

For live sub-satellite position, see the globe view (requires WebGL).

§ Visibility from observer

Set your observer location to see the next 7 days of passes ≥ 10°. The values pass through the URL so the page stays shareable.

No JS? Fill the form by hand. The geolocation button needs JavaScript.